This demonstration page uses our WeatherBlox Daily Observations layout. Learn more.

Left ArrowRight Arrow

44.8408, -93.29828

Hourly Observations for September 18, 2018

Temp ( °F °C ) Dew Point ( °F °C ) Humidity (%) Winds ( mph kmh ) Pressure ( in mb ) Visibility ( mi km ) Precip ( " mm )
12:13 am 00:13 Cloudy with Thunderstorms 61 16.1 60 15.6 97 97 NNE 6 9 29.94 1014 10 16 0.00 0.00
12:41 am 00:41 Cloudy with Strong Thunderstorms 60 15.6 60 15.6 100 100 NNW 7 11 29.97 1015 2 3 0.16 4.06
12:48 am 00:48 Cloudy with Thunderstorms 61 16 61 16 100 100 ENE 3 6 29.94 1014 3 5 0.22 5.59
12:53 am 00:53 Cloudy with Thunderstorms 60 15.6 60 15.6 100 100 Calm 29.96 1015 9 14 0.22 5.59
1:40 am 01:40 Cloudy 61 16.1 60 15.6 97 97 N 6 9 29.94 1014 10 16 0.02 0.51
1:49 am 01:49 Cloudy with Nearby Thunderstorms 61 16 61 16 100 100 N 6 9 29.94 1014 10 16 0.02 0.51
1:53 am 01:53 Cloudy with Nearby Thunderstorms 61 16.1 60 15.6 97 97 N 3 6 29.97 1015 10 16 0.02 0.51
2:20 am 02:20 Cloudy with Thunderstorms 61 16.1 60 15.6 97 97 Calm 29.94 1014 10 16 0.00 0.00
2:40 am 02:40 Mostly Cloudy with Thunderstorms 61 16.1 60 15.6 97 97 Calm 29.94 1014 2 3 0.07 1.78
2:49 am 02:49 Mostly Cloudy with Thunderstorms 61 16 61 16 100 100 N 8 13 29.94 1014 7 11 0.10 2.54
2:53 am 02:53 Cloudy with Thunderstorms 61 16.1 60 15.6 97 97 NNE 6 9 29.96 1015 8 13 0.10 2.54
3:13 am 03:13 Cloudy with Strong Thunderstorms 60 15.6 60 15.6 100 100 W 3 6 29.94 1014 2 2 0.07 1.78
3:18 am 03:18 Cloudy with Strong Thunderstorms 60 15.6 60 15.6 100 100 WSW 8 13 29.94 1014 1 1 0.21 5.33
3:29 am 03:29 Cloudy with Strong Thunderstorms 60 15.6 60 15.6 100 100 E 6 9 29.94 1014 1 2 0.44 11.18
3:37 am 03:37 Cloudy with Thunderstorms 60 15.6 60 15.6 100 100 NE 6 9 29.94 1014 3 4 0.51 12.95
3:45 am 03:45 Cloudy with Thunderstorms 60 15.6 60 15.6 100 100 VRB 3 6 29.94 1014 7 11 0.51 12.95
3:53 am 03:53 Cloudy with Thunderstorms 60 15.6 60 15.6 100 100 NNW 6 9 29.95 1014 10 16 0.51 12.95
4:05 am 04:05 Mostly Cloudy with Nearby Thunderstorms 60 15.6 60 15.6 100 100 ENE 3 6 29.94 1014 10 16 0.00 0.00
4:10 am 04:10 Mostly Cloudy 60 15.6 60 15.6 100 100 Calm 29.91 1013 10 16 0.00 0.00
4:53 am 04:53 Cloudy 61 16.1 61 16.1 100 100 E 6 9 29.93 1014 9 14 0.00 0.03
5:28 am 05:28 Cloudy with Light Rain 62 16.7 62 16.7 100 100 Calm 29.94 1014 7 11 0.00 0.03
5:41 am 05:41 Mostly Cloudy with Light Rain 62 16.7 62 16.7 100 100 ENE 6 9 29.94 1014 7 11 0.00 0.03
5:53 am 05:53 Cloudy with Light Rain 62 16.7 62 16.7 100 100 SW 7 11 29.93 1014 7 11 0.00 0.03
6:22 am 06:22 Mostly Cloudy 62 16.7 62 16.7 100 100 NNW 8 13 29.94 1014 7 11 0.00 0.03
6:53 am 06:53 Mostly Cloudy 62 16.7 62 16.7 100 100 Calm 29.96 1015 8 13 0.00 0.03
7:00 am 07:00 Cloudy 62 16.7 62 16.7 100 100 VRB 3 6 29.94 1014 8 13 0.00 0.00
7:53 am 07:53 Cloudy with Mist and Fog 62 16.7 62 16.7 100 100 VRB 5 7 29.93 1014 6 10 0.00 0.00
7:58 am 07:58 Cloudy with Mist and Fog 62 16.7 62 16.7 100 100 NE 7 11 29.91 1013 5 8 0.00 0.00
8:32 am 08:32 Cloudy 62 16.7 62 16.7 100 100 W 10 17 29.97 1015 7 11 0.00 0.00
8:35 am 08:35 Cloudy with Nearby Thunderstorms 62 16.7 62 16.7 100 100 W 16 26 30.00 1016 7 11 0.00 0.00
8:45 am 08:45 Cloudy with Thunderstorms 62 16.7 61 16.1 96 96 W 15 24 30.03 1017 4 6 0.00 0.03
8:53 am 08:53 Cloudy with Thunderstorms 61 16.1 61 16.1 100 100 WNW 5 7 30.01 1016 7 11 0.01 0.25
9:07 am 09:07 Cloudy with Nearby Thunderstorms 61 16.1 61 16.1 100 100 NW 6 9 30.00 1016 10 16 0.00 0.03
9:14 am 09:14 Cloudy with Light Rain 61 16.1 61 16.1 100 100 NW 6 9 29.97 1015 9 14 0.00 0.03
9:53 am 09:53 Cloudy 61 16.1 61 16.1 100 100 N 5 7 29.98 1015 10 16 0.01 0.25
10:30 am 10:30 Cloudy 61 16.1 61 16.1 100 100 E 15 24 29.91 1013 9 14 0.00 0.00
10:41 am 10:41 Cloudy 61 16.1 61 16.1 100 100 N 13 20 29.94 1014 8 13 0.00 0.00
10:53 am 10:53 Cloudy 61 16.1 61 16.1 100 100 N 8 13 29.98 1015 9 14 0.00 0.00
11:03 am 11:03 Cloudy 61 16.1 60 15.6 97 97 N 9 15 29.97 1015 10 16 0.00 0.00
11:53 am 11:53 Cloudy 61 16.1 59 15 93 93 ENE 9 15 29.98 1015 10 16 0.00 0.00
12:53 pm 12:53 Cloudy 63 17.2 61 16.1 93 93 Calm 29.98 1015 9 14 0.00 0.00
1:28 pm 13:28 Cloudy 64 17.8 61 16.1 90 90 N 6 9 29.94 1014 7 11 0.00 0.00
1:53 pm 13:53 Cloudy 65 18.3 62 16.7 90 90 WNW 3 6 29.97 1015 8 13 0.00 0.00
2:35 pm 14:35 Cloudy 65 18.3 61 16.1 87 87 N 5 7 29.94 1014 8 13 0.00 0.00
2:53 pm 14:53 Cloudy 65 18.3 61 16.1 87 87 NNW 6 9 29.97 1015 9 14 0.00 0.00
3:53 pm 15:53 Cloudy 64 17.8 60 15.6 87 87 N 7 11 29.98 1015 10 16 0.00 0.00
4:53 pm 16:53 Cloudy 63 17.2 60 15.6 90 90 NNE 9 15 29.98 1015 10 16 0.00 0.00
5:53 pm 17:53 Cloudy 64 17.8 60 15.6 87 87 NNE 8 13 29.98 1015 10 16 0.00 0.00
6:53 pm 18:53 Cloudy 63 17.2 60 15.6 90 90 NNE 8 13 29.99 1016 10 16 0.00 0.00
7:23 pm 19:23 Cloudy 63 17.2 60 15.6 90 90 NNE 8 13 29.97 1015 10 16 0.00 0.00
7:32 pm 19:32 Cloudy 63 17.2 60 15.6 90 90 NNE 8 13 29.97 1015 10 16 0.00 0.00
7:53 pm 19:53 Cloudy 62 16.7 60 15.6 93 93 NNE 9 15 29.99 1016 10 16 0.00 0.00
8:17 pm 20:17 Cloudy 62 16.7 60 15.6 93 93 NNE 9 15 29.97 1015 10 16 0.00 0.00
8:53 pm 20:53 Cloudy 62 16.7 60 15.6 93 93 NE 8 13 30.00 1016 10 16 0.00 0.00
9:03 pm 21:03 Mostly Cloudy 62 16.7 60 15.6 93 93 E 7 11 29.97 1015 10 16 0.00 0.00
9:33 pm 21:33 Mostly Cloudy 61 16.1 60 15.6 97 97 ESE 6 9 29.97 1015 10 16 0.00 0.00
9:53 pm 21:53 Mostly Cloudy 62 16.7 60 15.6 93 93 ESE 7 11 29.99 1016 10 16 0.00 0.00
10:53 pm 22:53 Cloudy 62 16.7 60 15.6 93 93 ENE 5 7 30.01 1016 10 16 0.00 0.00
11:38 pm 23:38 Cloudy with Thunderstorms 62 16.7 61 16.1 96 96 ENE 6 9 29.97 1015 10 16 0.00 0.00
11:53 pm 23:53 Cloudy with Thunderstorms 62 16.7 61 16.1 96 96 E 9 15 29.99 1016 10 16 0.00 0.03

Powered by AerisWeather